OBJECT AC, 61761

Orbit data source: Space-Track

You're viewing an Uncataloged Satellite

Recently launched and/or uncataloged satellites may have evolving metadata. Metadata may include but not limited to: Owner, Maufacturer, Bus, Motor, and Mission.

OBJECT AC, 61761 is a satellite in SSO that was launched on Mon, 04 Nov 2024 UTC via a SOYUZ-2-1B launch vehicle from the Vostochny Cosmodrome (VOSTO). Unknown objects in Earth's orbit typically refer to objects detected orbiting the Earth but have not yet been identified or cataloged. These objects could be anything from previously untracked satellites, spent rocket stages, debris from satellite collisions, or even natural meteoroids temporarily captured by Earth's gravity.

Loading next visibility...
OBJECT AC details
Identifier
61761, 2024-199AC
Orbit
SSO
Last TLE update11 hours ago
Origin
Flag of TBDSTTs (TBD)
ManufacturerSTTS/SPBPU
MissionOperational spacecraft
Bus & MotorCUBESAT 3U, Unknown motor
Mass3 kg wet, 3 kg dry
Launch date (UTC)
2024-11-04 (2 months ago)
Launch vehicle
SOYUZ-2-1B
Launch site
Vostochny Cosmodrome (VOSTO)
Object typeUnknown
Shape & HBRUnknown
Radar Cross SectionSmall (<0.1 m²)

Expand to show TLE details & history

TLE from 11 hours ago
0 OBJECT AC
1 61761U 24199AC  24361.53089987  .00025805  00000-0  98485-3 0  9998
2 61761  97.3785 225.6562 0013161  60.0558 300.1985 15.26558222 54863
Epoch: 2024-12-26T12:44Z
Definitive object data (Epoch: 2024-12-26T12:44:29.748Z)
Latitude-0.00012°
Longitude-60.9767°
Altitude484.674 km
Speed7.625 km/s
True Right ascension15h 02m 37s
True Declination0° 00' 00"
Sunlit
Object was in daylight at TLE epoch
Visualization TLE readout
Latitude-8.18604°
Longitude-59.46342°
Altitude486.953 km
Speed7.623 km/s
Apparent Right ascension13h 29m 12s
Apparent Declination-26° 25' 50"
Sunlit
Object is in daylight
Visualization observer readout
Local Sidereal Time23:06:26
Azimuth283.486° WNW
Elevation-57.505°
Doppler factor1
Orbital elements
Apogee altitude492.096 km
Perigee altitude474.036 km
Semi-major axis6,861.203 km
Eccentricity0.0013161
Inclination97.3785°
RAAN225.6562°
Arg. of periapsis60.0558°
True anomaly300.06805°
Mean anomaly300.1985°
Eccentric anomaly300.13328°
Mean motion3.81894 °/min
BSTAR0.00098485
Orbital period94.27 mins
Loading maneuver chart data...
Loading historical data...
Loading historical data...
Loading historical data...
Loading historical data...
Loading historical data...
Loading historical data...
Loading historical data...

OBJECT AC Visibility forecast

Observer location: undefined°, undefined

Span
Click to sort rows by Start time (UTC) header in descending order
Start Az.
Max El. time (UTC)
Max El. Az.
Max El.
End time (UTC)
End Az.
5 mins2024-12-27 03:28:04.535Z38.555° NE2024-12-27 03:31:04.535Z105.403° ESE25.511°2024-12-27 03:33:04.535Z149.882° SSE
5 mins2024-12-27 15:37:04.535Z196.806° SSW2024-12-27 15:39:04.535Z245.083° WSW32.629°2024-12-27 15:42:04.535Z328.713° NNW
|